Location: Carrières
(48.9495°N, 2.0407°E)
Time: 23:05:20
(UTC+00:00)

NOSS 3-4 (A) - Pass Details

Date: 28 January 2023
Orbit: 829 x 1382 km, 63.4° (Epoch: 31 March)

Event Time Altitude Azimuth Distance (km) Brightness Sun altitude
Rises 17:34:26 0° 317° (NW) 3,759 6.9 -8.8°
Reaches altitude 10° 17:36:54 10° 316° (NW) 2,878 6.3 -9.1°
Maximum altitude 17:43:47 79° 232° (SW) 1,189 4.1 -10.2°
Drops below altitude 10° 17:51:40 10° 147° (SSE) 3,266 6.1 -11.5°
Sets 17:54:37 0° 146° (SSE) 4,293 6.7 -11.9°
